| time (UTC) | temp F | wind direction | speed MPH | gust MPH | rain 1hr in | rain 24hr in | rain mn in | humidity % | barometer mb |
| 20260901184432 | 89 | 198 | 4.0 | 10.0 | 0.00 | 0.01 | 0.01 | 76 | 1016.8 |
| 20260901183928 | 89 | 179 | 3.0 | 6.0 | 0.00 | 0.01 | 0.01 | 78 | 1016.9 |
| 20260901183427 | 89 | 195 | 10.0 | 10.0 | 0.00 | 0.01 | 0.01 | 77 | 1016.7 |
| 20260901182923 | 88 | 158 | 3.0 | 11.0 | 0.00 | 0.01 | 0.01 | 81 | 1016.8 |
| 20260901182419 | 88 | 181 | 5.0 | 13.0 | 0.00 | 0.01 | 0.01 | 80 | 1017.0 |
| 20260901181914 | 88 | 145 | 6.0 | 15.0 | 0.00 | 0.01 | 0.01 | 81 | 1016.9 |
| 20260901181408 | 88 | 208 | 6.0 | 9.0 | 0.00 | 0.01 | 0.01 | 82 | 1016.7 |
| 20260901180906 | 88 | 201 | 14.0 | 14.0 | 0.00 | 0.01 | 0.01 | 82 | 1017.0 |
| 20260901180401 | 87 | 139 | 7.0 | 12.0 | 0.00 | 0.01 | 0.01 | 83 | 1016.9 |
| 20260901175859 | 87 | 142 | 3.0 | 9.0 | 0.00 | 0.01 | 0.01 | 83 | 1017.1 |
| 20260901175354 | 87 | 171 | 3.0 | 10.0 | 0.00 | 0.01 | 0.01 | 86 | 1017.0 |
| 20260901174849 | 86 | 198 | 7.0 | 9.0 | 0.00 | 0.01 | 0.01 | 85 | 1016.9 |
| 20260901174345 | 86 | 172 | 3.0 | 8.0 | 0.00 | 0.01 | 0.01 | 86 | 1017.2 |
| 20260901173841 | 86 | 182 | 5.0 | 10.0 | 0.00 | 0.01 | 0.01 | 85 | 1017.2 |
| 20260901173335 | 86 | 157 | 5.0 | 7.0 | 0.00 | 0.01 | 0.01 | 86 | 1017.2 |
| 20260901172832 | 84 | 181 | 2.0 | 6.0 | 0.00 | 0.01 | 0.01 | 89 | 1017.4 |
| 20260901172331 | 84 | 201 | 1.0 | 6.0 | 0.00 | 0.01 | 0.01 | 89 | 1017.4 |
| 20260901171829 | 84 | 190 | 5.0 | 7.0 | 0.00 | 0.01 | 0.01 | 87 | 1017.6 |
| 20260901171329 | 84 | 204 | 8.0 | 9.0 | 0.00 | 0.01 | 0.01 | 87 | 1017.4 |
| 20260901170828 | 84 | 192 | 4.0 | 7.0 | 0.00 | 0.01 | 0.01 | 89 | 1017.6 |
| 20260901170323 | 83 | 190 | 2.0 | 7.0 | 0.00 | 0.01 | 0.01 | 91 | 1017.4 |
| 20260901165821 | 83 | 138 | 4.0 | 8.0 | 0.00 | 0.01 | 0.01 | 92 | 1017.4 |
| 20260901165316 | 84 | 195 | 4.0 | 8.0 | 0.00 | 0.01 | 0.01 | 90 | 1017.7 |
| 20260901164813 | 84 | 189 | 5.0 | 6.0 | 0.00 | 0.01 | 0.01 | 88 | 1017.4 |
| 20260901164308 | 83 | 194 | 4.0 | 5.0 | 0.00 | 0.01 | 0.01 | 92 | 1017.6 |
| 20260901163802 | 82 | 195 | 2.0 | 3.0 | 0.00 | 0.01 | 0.01 | 92 | 1017.5 |
| 20260901163257 | 82 | 199 | 4.0 | 6.0 | 0.00 | 0.01 | 0.01 | 92 | 1017.8 |
| 20260901162752 | 83 | 147 | 5.0 | 8.0 | 0.00 | 0.01 | 0.01 | 91 | 1018.0 |
| 20260901162251 | 83 | 181 | 3.0 | 7.0 | 0.00 | 0.01 | 0.01 | 91 | 1018.0 |
| 20260901161750 | 83 | 253 | 1.0 | 4.0 | 0.02 | 0.01 | 0.01 | 92 | 1018.0 |
| 20260901161244 | 83 | 178 | 0.0 | 3.0 | 0.05 | 0.01 | 0.01 | 92 | 1017.7 |
| 20260901160741 | 83 | 161 | 3.0 | 5.0 | 0.02 | 0.00 | 0.00 | 90 | 1017.8 |
| 20260901160237 | 84 | 184 | 1.0 | 8.0 | 0.00 | 0.00 | 0.00 | 88 | 1017.7 |
| 20260901155735 | 85 | 151 | 1.0 | 7.0 | 0.00 | 0.00 | 0.00 | 87 | 1017.9 |
| 20260901155230 | 83 | 238 | 3.0 | 5.0 | 0.00 | 0.00 | 0.00 | 88 | 1017.4 |
| 20260901154725 | 83 | 179 | 4.0 | 7.0 | 0.00 | 0.00 | 0.00 | 89 | 1017.6 |
| 20260901154221 | 83 | 142 | 2.0 | 5.0 | 0.00 | 0.00 | 0.00 | 89 | 1017.7 |
| 20260901153715 | 83 | 182 | 3.0 | 4.0 | 0.00 | 0.00 | 0.00 | 91 | 1017.8 |
| 20260901153210 | 82 | 162 | 3.0 | 6.0 | 0.00 | 0.00 | 0.00 | 90 | 1017.7 |
| 20260901152704 | 82 | 169 | 3.0 | 5.0 | 0.00 | 0.00 | 0.00 | 90 | 1017.6 |
| 20260901152203 | 82 | 209 | 3.0 | 5.0 | 0.00 | 0.00 | 0.00 | 91 | 1017.6 |
| 20260901151659 | 81 | 185 | 4.0 | 6.0 | 0.00 | 0.00 | 0.00 | 91 | 1017.8 |
| 20260901151158 | 81 | 156 | 4.0 | 5.0 | 0.00 | 0.00 | 0.00 | 91 | 1017.2 |
| 20260901150657 | 81 | 162 | 4.0 | 5.0 | 0.00 | 0.00 | 0.00 | 91 | 1017.4 |
| 20260901150155 | 82 | 165 | 5.0 | 5.0 | 0.00 | 0.00 | 0.00 | 90 | 1017.6 |
| 20260901145654 | 81 | 215 | 3.0 | 3.0 | 0.00 | 0.00 | 0.00 | 91 | 1017.5 |
| 20260901145154 | 81 | 218 | 3.0 | 5.0 | 0.00 | 0.00 | 0.00 | 91 | 1017.6 |
| 20260901144649 | 81 | 189 | 1.0 | 3.0 | 0.00 | 0.00 | 0.00 | 91 | 1017.5 |
| 20260901144144 | 81 | 201 | 3.0 | 6.0 | 0.00 | 0.00 | 0.00 | 91 | 1017.4 |
| 20260901143639 | 81 | 221 | 6.0 | 6.0 | 0.00 | 0.00 | 0.00 | 90 | 1017.1 |
| 20260901143136 | 81 | 222 | 1.0 | 5.0 | 0.00 | 0.00 | 0.00 | 90 | 1017.6 |
| 20260901142632 | 81 | 216 | 3.0 | 5.0 | 0.00 | 0.00 | 0.00 | 91 | 1017.4 |
| 20260901142131 | 81 | 180 | 3.0 | 5.0 | 0.00 | 0.00 | 0.00 | 91 | 1017.5 |
| 20260901141626 | 81 | 209 | 5.0 | 8.0 | 0.00 | 0.00 | 0.00 | 90 | 1017.6 |
| 20260901141120 | 80 | 184 | 2.0 | 7.0 | 0.00 | 0.00 | 0.00 | 91 | 1017.3 |
| 20260901140619 | 80 | 214 | 3.0 | 9.0 | 0.00 | 0.00 | 0.00 | 91 | 1017.2 |
| 20260901140118 | 80 | 169 | 2.0 | 6.0 | 0.00 | 0.00 | 0.00 | 92 | 1017.3 |
| 20260901135618 | 80 | 188 | 2.0 | 5.0 | 0.00 | 0.00 | 0.00 | 91 | 1017.3 |
| 20260901135113 | 79 | 200 | 4.0 | 6.0 | 0.00 | 0.00 | 0.00 | 92 | 1017.4 |
| 20260901134609 | 80 | 196 | 4.0 | 6.0 | 0.00 | 0.00 | 0.00 | 92 | 1017.2 |
| 20260901134104 | 79 | 206 | 1.0 | 6.0 | 0.00 | 0.00 | 0.00 | 92 | 1017.3 |
| 20260901133603 | 79 | 178 | 3.0 | 5.0 | 0.00 | 0.00 | 0.00 | 92 | 1017.3 |
| 20260901133102 | 79 | 194 | 2.0 | 7.0 | 0.00 | 0.00 | 0.00 | 94 | 1017.2 |
| 20260901132557 | 78 | 185 | 4.0 | 7.0 | 0.00 | 0.00 | 0.00 | 93 | 1017.4 |
| 20260901132056 | 78 | 204 | 3.0 | 5.0 | 0.00 | 0.00 | 0.00 | 93 | 1017.3 |
| 20260901131551 | 78 | 246 | 3.0 | 7.0 | 0.00 | 0.00 | 0.00 | 94 | 1017.2 |
| 20260901131045 | 78 | 130 | 0.0 | 5.0 | 0.00 | 0.00 | 0.00 | 94 | 1017.3 |
| 20260901130540 | 77 | 217 | 3.0 | 6.0 | 0.00 | 0.00 | 0.00 | 95 | 1017.5 |
| 20260901130039 | 77 | 178 | 3.0 | 4.0 | 0.00 | 0.00 | 0.00 | 96 | 1017.5 |
| 20260901125537 | 77 | 192 | 3.0 | 5.0 | 0.00 | 0.00 | 0.00 | 96 | 1017.3 |
| 20260901125033 | 76 | 188 | 4.0 | 6.0 | 0.00 | 0.00 | 0.00 | 96 | 1017.4 |
| 20260901124532 | 76 | 196 | 1.0 | 6.0 | 0.00 | 0.00 | 0.00 | 97 | 1017.3 |
| 20260901124027 | 76 | 204 | 3.0 | 7.0 | 0.00 | 0.00 | 0.00 | 97 | 1017.4 |
| 20260901123521 | 76 | 208 | 4.0 | 6.0 | 0.00 | 0.00 | 0.00 | 97 | 1017.4 |
| 20260901123016 | 75 | 210 | 3.0 | 6.0 | 0.00 | 0.00 | 0.00 | 97 | 1017.3 |
| 20260901122514 | 75 | 159 | 3.0 | 7.0 | 0.00 | 0.00 | 0.00 | 98 | 1017.2 |
| 20260901122013 | 75 | 174 | 2.0 | 7.0 | 0.00 | 0.00 | 0.00 | 99 | 1017.1 |
| 20260901121508 | 74 | 162 | 4.0 | 7.0 | 0.00 | 0.00 | 0.00 | 99 | 1017.2 |
| 20260901121003 | 74 | 171 | 4.0 | 5.0 | 0.00 | 0.00 | 0.00 | 99 | 1017.2 |
| 20260901120458 | 74 | 155 | 3.0 | 4.0 | 0.00 | 0.00 | 0.00 | 99 | 1016.9 |
| 20260901115953 | 73 | 173 | 5.0 | 7.0 | 0.00 | 0.00 | 0.00 | 99 | 1017.1 |
| 20260901115449 | 73 | 167 | 2.0 | 5.0 | 0.00 | 0.00 | 0.00 | 99 | 1017.1 |
| 20260901114946 | 73 | 162 | 3.0 | 5.0 | 0.00 | 0.00 | 0.00 | 99 | 1017.0 |
| 20260901114441 | 73 | 153 | 3.0 | 4.0 | 0.00 | 0.00 | 0.00 | 99 | 1017.1 |
| 20260901113939 | 73 | 159 | 2.0 | 4.0 | 0.00 | 0.00 | 0.00 | 99 | 1016.8 |
| 20260901113438 | 72 | 166 | 2.0 | 5.0 | 0.00 | 0.00 | 0.00 | 99 | 1016.9 |
| 20260901112934 | 72 | 164 | 2.0 | 4.0 | 0.00 | 0.00 | 0.00 | 99 | 1017.0 |
| 20260901112429 | 72 | 167 | 2.0 | 2.0 | 0.00 | 0.00 | 0.00 | 99 | 1016.8 |
| 20260901111924 | 72 | 173 | 1.0 | 2.0 | 0.00 | 0.00 | 0.00 | 99 | 1016.7 |
| 20260901111423 | 72 | 148 | 2.0 | 3.0 | 0.00 | 0.00 | 0.00 | 99 | 1016.7 |
| 20260901110921 | 72 | 164 | 3.0 | 4.0 | 0.00 | 0.00 | 0.00 | 99 | 1016.7 |
| 20260901110417 | 72 | 150 | 3.0 | 3.0 | 0.00 | 0.00 | 0.00 | 99 | 1016.7 |
| 20260901105913 | 73 | 169 | 1.0 | 4.0 | 0.00 | 0.00 | 0.00 | 99 | 1016.3 |
| 20260901105409 | 72 | 159 | 1.0 | 5.0 | 0.00 | 0.00 | 0.00 | 99 | 1016.3 |
| 20260901104904 | 73 | 146 | 2.0 | 4.0 | 0.00 | 0.00 | 0.00 | 99 | 1016.3 |
| 20260901104359 | 73 | 153 | 3.0 | 3.0 | 0.00 | 0.00 | 0.00 | 99 | 1016.1 |
| 20260901103854 | 73 | 156 | 0.0 | 2.0 | 0.00 | 0.00 | 0.00 | 99 | 1016.1 |
| 20260901103349 | 73 | 120 | 2.0 | 3.0 | 0.00 | 0.00 | 0.00 | 99 | 1016.0 |
| 20260901102849 | 73 | 157 | 2.0 | 3.0 | 0.00 | 0.00 | 0.00 | 99 | 1016.2 |
| 20260901102343 | 73 | 166 | 2.0 | 3.0 | 0.00 | 0.00 | 0.00 | 99 | 1016.0 |
| 20260901101839 | 73 | 186 | 0.0 | 2.0 | 0.00 | 0.00 | 0.00 | 99 | 1016.1 |
| 20260901101338 | 73 | 196 | 2.0 | 3.0 | 0.00 | 0.00 | 0.00 | 99 | 1016.2 |
| 20260901100833 | 73 | 205 | 0.0 | 2.0 | 0.00 | 0.00 | 0.00 | 99 | 1016.3 |
| 20260901100328 | 73 | 199 | 0.0 | 1.0 | 0.00 | 0.00 | 0.00 | 99 | 1016.2 |
| 20260901095827 | 73 | 191 | 1.0 | 3.0 | 0.00 | 0.00 | 0.00 | 99 | 1016.1 |
| 20260901095324 | 74 | 171 | 3.0 | 4.0 | 0.00 | 0.00 | 0.00 | 99 | 1016.3 |
| 20260901094818 | 74 | 164 | 2.0 | 3.0 | 0.00 | 0.00 | 0.00 | 99 | 1016.3 |
| 20260901094313 | 74 | 171 | 2.0 | 4.0 | 0.00 | 0.00 | 0.00 | 99 | 1016.2 |
| 20260901093809 | 74 | 205 | 0.0 | 4.0 | 0.00 | 0.00 | 0.00 | 99 | 1016.1 |
| 20260901093307 | 74 | 168 | 3.0 | 3.0 | 0.00 | 0.00 | 0.00 | 99 | 1016.3 |
| 20260901092804 | 74 | 194 | 3.0 | 5.0 | 0.00 | 0.00 | 0.00 | 99 | 1016.2 |
| 20260901092259 | 74 | 131 | 2.0 | 4.0 | 0.00 | 0.00 | 0.00 | 99 | 1016.2 |
| 20260901091755 | 74 | 159 | 2.0 | 3.0 | 0.00 | 0.00 | 0.00 | 99 | 1016.2 |
| 20260901091250 | 74 | 179 | 1.0 | 3.0 | 0.00 | 0.00 | 0.00 | 99 | 1016.4 |
| 20260901090750 | 74 | 160 | 1.0 | 3.0 | 0.00 | 0.00 | 0.00 | 99 | 1016.1 |
| 20260901090244 | 74 | 198 | 2.0 | 3.0 | 0.00 | 0.00 | 0.00 | 98 | 1016.2 |
| 20260901085741 | 74 | 182 | 2.0 | 5.0 | 0.00 | 0.00 | 0.00 | 98 | 1016.1 |
| 20260901085235 | 74 | 146 | 1.0 | 4.0 | 0.00 | 0.00 | 0.00 | 98 | 1016.4 |
| 20260901084726 | 75 | 162 | 2.0 | 6.0 | 0.00 | 0.00 | 0.00 | 98 | 1016.4 |
| 20260901084223 | 75 | 171 | 0.0 | 4.0 | 0.00 | 0.00 | 0.00 | 98 | 1016.1 |
| 20260901083717 | 75 | 150 | 1.0 | 2.0 | 0.00 | 0.00 | 0.00 | 98 | 1016.1 |
| 20260901083217 | 75 | 170 | 2.0 | 4.0 | 0.00 | 0.00 | 0.00 | 98 | 1015.9 |
| 20260901082715 | 75 | 181 | 1.0 | 3.0 | 0.00 | 0.00 | 0.00 | 97 | 1016.0 |
| 20260901082211 | 75 | 166 | 2.0 | 3.0 | 0.00 | 0.00 | 0.00 | 97 | 1016.0 |
| 20260901081707 | 75 | 170 | 2.0 | 3.0 | 0.00 | 0.00 | 0.00 | 97 | 1015.9 |
| 20260901081206 | 75 | 209 | 3.0 | 3.0 | 0.00 | 0.00 | 0.00 | 97 | 1016.0 |
| 20260901080701 | 75 | 175 | 4.0 | 5.0 | 0.00 | 0.00 | 0.00 | 97 | 1016.1 |
| 20260901080200 | 75 | 184 | 2.0 | 3.0 | 0.00 | 0.00 | 0.00 | 98 | 1016.0 |
| 20260901075655 | 75 | 152 | 2.0 | 3.0 | 0.00 | 0.00 | 0.00 | 98 | 1016.0 |
| 20260901075154 | 75 | 167 | 2.0 | 3.0 | 0.00 | 0.00 | 0.00 | 98 | 1015.8 |
| 20260901074654 | 75 | 164 | 2.0 | 3.0 | 0.00 | 0.00 | 0.00 | 98 | 1015.9 |
| 20260901074149 | 75 | 171 | 0.0 | 5.0 | 0.00 | 0.00 | 0.00 | 98 | 1015.8 |
| 20260901073645 | 75 | 158 | 0.0 | 2.0 | 0.00 | 0.00 | 0.00 | 99 | 1015.9 |
| 20260901073141 | 75 | 171 | 2.0 | 2.0 | 0.00 | 0.00 | 0.00 | 99 | 1015.8 |
| 20260901072636 | 75 | 153 | 0.0 | 2.0 | 0.00 | 0.00 | 0.00 | 99 | 1015.7 |
| 20260901072131 | 75 | 167 | 2.0 | 3.0 | 0.00 | 0.00 | 0.00 | 99 | 1015.9 |
| 20260901071630 | 75 | 160 | 2.0 | 3.0 | 0.00 | 0.00 | 0.00 | 99 | 1015.7 |
| 20260901071125 | 75 | 187 | 2.0 | 4.0 | 0.00 | 0.00 | 0.00 | 99 | 1015.8 |
| 20260901070619 | 74 | 169 | 2.0 | 3.0 | 0.00 | 0.00 | 0.00 | 99 | 1015.8 |
| 20260901070114 | 74 | 161 | 1.0 | 3.0 | 0.00 | 0.00 | 0.00 | 99 | 1015.9 |
| 20260901065608 | 74 | 145 | 1.0 | 2.0 | 0.00 | 0.00 | 0.00 | 99 | 1016.0 |
| 20260901065103 | 74 | 154 | 0.0 | 2.0 | 0.00 | 0.00 | 0.00 | 98 | 1015.9 |
| 20260901064601 | 74 | 135 | 0.0 | 0.0 | 0.00 | 0.00 | 0.00 | 98 | 1015.8 |
| 20260901064056 | 75 | 224 | 0.0 | 0.0 | 0.00 | 0.00 | 0.00 | 97 | 1015.9 |
| 20260901063553 | 75 | 226 | 0.0 | 2.0 | 0.00 | 0.00 | 0.00 | 97 | 1015.9 |
| 20260901063049 | 75 | 230 | 0.0 | 1.0 | 0.00 | 0.00 | 0.00 | 97 | 1016.0 |
| 20260901062544 | 75 | 249 | 0.0 | 0.0 | 0.00 | 0.00 | 0.00 | 96 | 1016.0 |
| 20260901062040 | 76 | 249 | 0.0 | 1.0 | 0.00 | 0.00 | 0.00 | 95 | 1016.0 |
| 20260901061536 | 76 | 174 | 0.0 | 1.0 | 0.00 | 0.00 | 0.00 | 95 | 1016.0 |
| 20260901061031 | 76 | 345 | 0.0 | 3.0 | 0.00 | 0.00 | 0.00 | 95 | 1016.0 |
| 20260901060525 | 76 | 215 | 2.0 | 3.0 | 0.00 | 0.00 | 0.00 | 95 | 1016.0 |
| 20260901060020 | 76 | 180 | 2.0 | 3.0 | 0.00 | 0.00 | 0.00 | 95 | 1016.1 |
| 20260901055515 | 76 | 192 | 2.0 | 3.0 | 0.00 | 0.00 | 0.00 | 95 | 1016.2 |
| 20260901055013 | 76 | 222 | 2.0 | 3.0 | 0.00 | 0.00 | 0.00 | 95 | 1016.2 |
| 20260901054509 | 76 | 246 | 4.0 | 4.0 | 0.00 | 0.00 | 0.00 | 95 | 1015.9 |
| 20260901054005 | 77 | 212 | 0.0 | 3.0 | 0.00 | 0.00 | 0.00 | 95 | 1016.2 |
| 20260901053501 | 77 | 194 | 1.0 | 4.0 | 0.00 | 0.00 | 0.00 | 95 | 1016.1 |
| 20260901052956 | 77 | 204 | 1.0 | 3.0 | 0.00 | 0.00 | 0.00 | 94 | 1015.9 |
| 20260901052451 | 77 | 213 | 2.0 | 3.0 | 0.00 | 0.00 | 0.00 | 94 | 1015.8 |
| 20260901051944 | 77 | 192 | 4.0 | 4.0 | 0.00 | 0.00 | 0.00 | 95 | 1016.0 |
| 20260901051439 | 77 | 172 | 2.0 | 4.0 | 0.00 | 0.00 | 0.00 | 94 | 1016.0 |
| 20260901050938 | 77 | 191 | 2.0 | 4.0 | 0.00 | 0.00 | 0.00 | 94 | 1015.9 |
| 20260901050434 | 77 | 228 | 2.0 | 4.0 | 0.00 | 0.00 | 0.00 | 95 | 1016.2 |
| 20260901045929 | 77 | 197 | 3.0 | 4.0 | 0.00 | 0.14 | 0.14 | 95 | 1016.0 |
| 20260901045424 | 77 | 204 | 2.0 | 4.0 | 0.00 | 0.14 | 0.14 | 96 | 1015.8 |
| 20260901044919 | 77 | 219 | 1.0 | 3.0 | 0.00 | 0.14 | 0.14 | 96 | 1015.9 |
| 20260901044415 | 77 | 172 | 0.0 | 4.0 | 0.00 | 0.14 | 0.14 | 96 | 1016.3 |
| 20260901043910 | 76 | 220 | 0.0 | 3.0 | 0.00 | 0.14 | 0.14 | 96 | 1016.0 |
| 20260901043407 | 77 | 175 | 0.0 | 2.0 | 0.00 | 0.14 | 0.14 | 96 | 1016.2 |
| 20260901042901 | 77 | 151 | 1.0 | 2.0 | 0.00 | 0.14 | 0.14 | 96 | 1016.0 |
| 20260901042355 | 77 | 183 | 0.0 | 2.0 | 0.00 | 0.14 | 0.14 | 96 | 1016.1 |
| 20260901041851 | 77 | 174 | 1.0 | 2.0 | 0.00 | 0.14 | 0.14 | 96 | 1016.2 |
| 20260901041345 | 77 | 189 | 3.0 | 4.0 | 0.00 | 0.14 | 0.14 | 96 | 1016.0 |
| 20260901040840 | 77 | 144 | 1.0 | 3.0 | 0.00 | 0.14 | 0.14 | 96 | 1016.2 |
| 20260901040339 | 77 | 168 | 2.0 | 4.0 | 0.00 | 0.14 | 0.14 | 96 | 1016.2 |
| 20260901035838 | 77 | 158 | 1.0 | 3.0 | 0.00 | 0.14 | 0.14 | 95 | 1016.1 |
| 20260901035337 | 77 | 200 | 0.0 | 2.0 | 0.00 | 0.14 | 0.14 | 95 | 1016.0 |
| 20260901034836 | 77 | 165 | 1.0 | 3.0 | 0.00 | 0.14 | 0.14 | 95 | 1016.1 |
| 20260901034332 | 77 | 167 | 2.0 | 3.0 | 0.00 | 0.14 | 0.14 | 95 | 1016.1 |
| 20260901033831 | 78 | 181 | 1.0 | 4.0 | 0.00 | 0.14 | 0.14 | 94 | 1016.2 |
| 20260901033330 | 78 | 170 | 2.0 | 3.0 | 0.00 | 0.14 | 0.14 | 94 | 1016.3 |
| 20260901032829 | 78 | 167 | 3.0 | 4.0 | 0.00 | 0.14 | 0.14 | 94 | 1016.2 |
| 20260901032329 | 78 | 158 | 2.0 | 4.0 | 0.00 | 0.14 | 0.14 | 93 | 1016.1 |
| 20260901031824 | 78 | 186 | 5.0 | 6.0 | 0.00 | 0.14 | 0.14 | 93 | 1016.2 |
| 20260901031320 | 78 | 187 | 3.0 | 4.0 | 0.00 | 0.14 | 0.14 | 93 | 1016.2 |
| 20260901030819 | 78 | 185 | 2.0 | 5.0 | 0.00 | 0.14 | 0.14 | 93 | 1016.1 |
| 20260901030315 | 78 | 187 | 0.0 | 4.0 | 0.00 | 0.14 | 0.14 | 92 | 1016.3 |
| 20260901025814 | 79 | 152 | 0.0 | 3.0 | 0.00 | 0.14 | 0.14 | 92 | 1016.2 |
| 20260901025309 | 79 | 204 | 3.0 | 6.0 | 0.00 | 0.14 | 0.14 | 92 | 1016.2 |
| 20260901024804 | 79 | 219 | 2.0 | 2.0 | 0.00 | 0.14 | 0.14 | 92 | 1016.4 |
| 20260901024303 | 79 | 190 | 2.0 | 3.0 | 0.00 | 0.14 | 0.14 | 92 | 1016.3 |
| 20260901023801 | 79 | 192 | 3.0 | 5.0 | 0.00 | 0.14 | 0.14 | 92 | 1016.2 |
| 20260901023256 | 79 | 176 | 3.0 | 4.0 | 0.00 | 0.14 | 0.14 | 92 | 1016.2 |
| 20260901022751 | 79 | 156 | 2.0 | 6.0 | 0.00 | 0.14 | 0.14 | 91 | 1016.4 |
| 20260901022247 | 79 | 195 | 1.0 | 4.0 | 0.00 | 0.14 | 0.14 | 91 | 1016.3 |
| 20260901021742 | 79 | 201 | 3.0 | 5.0 | 0.00 | 0.14 | 0.14 | 91 | 1016.3 |
| 20260901021238 | 79 | 225 | 1.0 | 4.0 | 0.00 | 0.14 | 0.14 | 91 | 1016.4 |
| 20260901020733 | 79 | 202 | 2.0 | 3.0 | 0.00 | 0.14 | 0.14 | 90 | 1016.6 |
| 20260901020228 | 80 | 207 | 2.0 | 5.0 | 0.00 | 0.14 | 0.14 | 90 | 1016.6 |
| 20260901015723 | 80 | 188 | 2.0 | 6.0 | 0.00 | 0.14 | 0.14 | 90 | 1016.1 |
| 20260901015219 | 80 | 184 | 1.0 | 5.0 | 0.00 | 0.14 | 0.14 | 89 | 1016.2 |
| 20260901014718 | 80 | 170 | 1.0 | 4.0 | 0.00 | 0.14 | 0.14 | 89 | 1016.1 |
| 20260901014215 | 80 | 197 | 3.0 | 4.0 | 0.00 | 0.14 | 0.14 | 88 | 1016.2 |
| 20260901013710 | 80 | 176 | 3.0 | 4.0 | 0.00 | 0.14 | 0.14 | 89 | 1016.1 |
| 20260901013205 | 80 | 167 | 2.0 | 3.0 | 0.00 | 0.14 | 0.14 | 89 | 1016.0 |
| 20260901012701 | 80 | 150 | 3.0 | 5.0 | 0.00 | 0.14 | 0.14 | 89 | 1016.0 |
| 20260901012155 | 80 | 174 | 2.0 | 5.0 | 0.00 | 0.14 | 0.14 | 88 | 1016.2 |
| 20260901011651 | 80 | 220 | 3.0 | 6.0 | 0.00 | 0.14 | 0.14 | 89 | 1016.1 |
| 20260901011150 | 80 | 162 | 3.0 | 5.0 | 0.00 | 0.14 | 0.14 | 89 | 1015.9 |
| 20260901010645 | 80 | 168 | 3.0 | 4.0 | 0.00 | 0.14 | 0.14 | 89 | 1015.8 |
| 20260901010145 | 80 | 170 | 3.0 | 6.0 | 0.00 | 0.14 | 0.14 | 89 | 1016.0 |
| 20260901005644 | 80 | 200 | 4.0 | 5.0 | 0.00 | 0.14 | 0.14 | 89 | 1016.2 |
| 20260901005140 | 81 | 215 | 4.0 | 6.0 | 0.00 | 0.14 | 0.14 | 88 | 1016.1 |
| 20260901004639 | 81 | 205 | 2.0 | 4.0 | 0.00 | 0.14 | 0.14 | 88 | 1016.0 |
| 20260901004134 | 81 | 219 | 5.0 | 5.0 | 0.00 | 0.14 | 0.14 | 88 | 1015.8 |
| 20260901003629 | 81 | 157 | 4.0 | 6.0 | 0.00 | 0.14 | 0.14 | 88 | 1015.7 |
| 20260901003127 | 81 | 164 | 2.0 | 7.0 | 0.00 | 0.14 | 0.14 | 88 | 1015.7 |
| 20260901002622 | 81 | 200 | 4.0 | 8.0 | 0.00 | 0.14 | 0.14 | 88 | 1015.7 |
| 20260901002116 | 81 | 180 | 2.0 | 6.0 | 0.00 | 0.14 | 0.14 | 88 | 1015.5 |
| 20260901001611 | 81 | 166 | 2.0 | 7.0 | 0.00 | 0.14 | 0.14 | 88 | 1015.4 |
| 20260901001106 | 81 | 200 | 2.0 | 5.0 | 0.00 | 0.14 | 0.14 | 88 | 1015.3 |
| 20260901000556 | 81 | 164 | 3.0 | 5.0 | 0.00 | 0.14 | 0.14 | 88 | 1015.2 |
| 20260901000052 | 81 | 153 | 2.0 | 5.0 | 0.00 | 0.14 | 0.14 | 88 | 1015.3 |
| 20260831235545 | 82 | 144 | 4.0 | 6.0 | 0.00 | 0.14 | 0.14 | 88 | 1015.2 |
| 20260831235041 | 82 | 146 | 3.0 | 5.0 | 0.00 | 0.14 | 0.14 | 88 | 1015.3 |
| 20260831234534 | 82 | 171 | 1.0 | 5.0 | 0.00 | 0.14 | 0.14 | 87 | 1015.5 |
| 20260831234030 | 82 | 173 | 3.0 | 4.0 | 0.00 | 0.14 | 0.14 | 87 | 1015.4 |
| 20260831233525 | 82 | 159 | 3.0 | 8.0 | 0.00 | 0.14 | 0.14 | 87 | 1015.5 |
| 20260831233021 | 83 | 221 | 2.0 | 7.0 | 0.00 | 0.14 | 0.14 | 86 | 1015.5 |
| 20260831232516 | 83 | 190 | 5.0 | 11.0 | 0.00 | 0.14 | 0.14 | 86 | 1015.5 |
| 20260831232012 | 82 | 144 | 7.0 | 9.0 | 0.00 | 0.14 | 0.14 | 86 | 1015.9 |
| 20260831231509 | 83 | 195 | 3.0 | 7.0 | 0.00 | 0.14 | 0.14 | 86 | 1015.6 |
| 20260831231004 | 83 | 174 | 3.0 | 7.0 | 0.00 | 0.14 | 0.14 | 86 | 1015.5 |
| 20260831230459 | 83 | 156 | 2.0 | 6.0 | 0.00 | 0.14 | 0.14 | 87 | 1015.5 |
| 20260831225953 | 82 | 209 | 3.0 | 5.0 | 0.00 | 0.14 | 0.14 | 86 | 1015.5 |
| 20260831225449 | 82 | 194 | 3.0 | 10.0 | 0.00 | 0.14 | 0.14 | 86 | 1015.6 |
| 20260831224943 | 83 | 199 | 5.0 | 6.0 | 0.00 | 0.14 | 0.14 | 85 | 1015.5 |
| 20260831224443 | 83 | 210 | 4.0 | 6.0 | 0.00 | 0.14 | 0.14 | 84 | 1015.5 |
| 20260831223938 | 84 | 208 | 3.0 | 9.0 | 0.00 | 0.14 | 0.14 | 82 | 1015.5 |
| 20260831223433 | 84 | 170 | 4.0 | 8.0 | 0.00 | 0.14 | 0.14 | 83 | 1015.4 |
| 20260831222930 | 84 | 195 | 4.0 | 9.0 | 0.00 | 0.14 | 0.14 | 83 | 1015.4 |
| 20260831222426 | 84 | 163 | 4.0 | 6.0 | 0.00 | 0.14 | 0.14 | 83 | 1015.5 |
| 20260831221920 | 83 | 195 | 8.0 | 8.0 | 0.00 | 0.14 | 0.14 | 84 | 1015.4 |
| 20260831221416 | 83 | 179 | 3.0 | 8.0 | 0.00 | 0.14 | 0.14 | 85 | 1015.3 |
| 20260831220911 | 83 | 179 | 3.0 | 6.0 | 0.00 | 0.14 | 0.14 | 84 | 1015.2 |
| 20260831220407 | 84 | 199 | 2.0 | 8.0 | 0.00 | 0.14 | 0.14 | 85 | 1015.4 |
| 20260831215901 | 83 | 180 | 5.0 | 7.0 | 0.00 | 0.14 | 0.14 | 84 | 1015.4 |
| 20260831215352 | 82 | 176 | 3.0 | 9.0 | 0.00 | 0.14 | 0.14 | 85 | 1015.1 |
| 20260831214848 | 80 | 186 | 7.0 | 8.0 | 0.00 | 0.14 | 0.14 | 88 | 1015.2 |
| 20260831214345 | 80 | 211 | 3.0 | 12.0 | 0.00 | 0.14 | 0.14 | 89 | 1015.3 |
| 20260831213840 | 80 | 167 | 6.0 | 10.0 | 0.00 | 0.14 | 0.14 | 89 | 1015.3 |
| 20260831213337 | 80 | 182 | 3.0 | 9.0 | 0.00 | 0.14 | 0.14 | 90 | 1015.2 |
| 20260831212831 | 79 | 175 | 4.0 | 9.0 | 0.00 | 0.14 | 0.14 | 90 | 1015.4 |
| 20260831212328 | 78 | 173 | 3.0 | 8.0 | 0.00 | 0.14 | 0.14 | 91 | 1015.2 |
| 20260831211827 | 78 | 168 | 3.0 | 8.0 | 0.00 | 0.14 | 0.14 | 92 | 1015.3 |
| 20260831211322 | 78 | 236 | 4.0 | 7.0 | 0.00 | 0.14 | 0.14 | 91 | 1015.1 |
| 20260831210821 | 78 | 201 | 5.0 | 7.0 | 0.00 | 0.14 | 0.14 | 91 | 1015.2 |
| 20260831210317 | 78 | 191 | 4.0 | 9.0 | 0.00 | 0.14 | 0.14 | 91 | 1014.9 |
| 20260831205817 | 78 | 180 | 5.0 | 13.0 | 0.00 | 0.14 | 0.14 | 90 | 1014.7 |
| 20260831205313 | 78 | 152 | 5.0 | 13.0 | 0.00 | 0.14 | 0.14 | 91 | 1014.4 |
| 20260831204808 | 77 | 137 | 3.0 | 6.0 | 0.00 | 0.14 | 0.14 | 92 | 1013.7 |
| 20260831204307 | 77 | 89 | 2.0 | 7.0 | 0.00 | 0.14 | 0.14 | 91 | 1014.4 |
| 20260831203806 | 77 | 201 | 4.0 | 5.0 | 0.00 | 0.14 | 0.14 | 91 | 1015.3 |
| 20260831203255 | 77 | 185 | 4.0 | 8.0 | 0.00 | 0.14 | 0.14 | 90 | 1015.3 |
| 20260831202753 | 77 | 183 | 2.0 | 4.0 | 0.00 | 0.14 | 0.14 | 91 | 1014.9 |
| 20260831202248 | 77 | 170 | 4.0 | 11.0 | 0.00 | 0.14 | 0.14 | 90 | 1015.1 |
| 20260831201743 | 77 | 154 | 5.0 | 9.0 | 0.02 | 0.14 | 0.14 | 89 | 1015.2 |
| 20260831201242 | 78 | 173 | 4.0 | 9.0 | 0.02 | 0.14 | 0.14 | 89 | 1015.5 |
| 20260831200737 | 79 | 181 | 4.0 | 15.0 | 0.00 | 0.13 | 0.13 | 83 | 1015.7 |
| 20260831200232 | 80 | 178 | 7.0 | 23.0 | 0.00 | 0.13 | 0.13 | 81 | 1015.7 |
| 20260831195728 | 80 | 201 | 10.0 | 16.0 | 0.00 | 0.13 | 0.13 | 80 | 1015.8 |
| 20260831195224 | 81 | 180 | 7.0 | 18.0 | 0.00 | 0.13 | 0.13 | 79 | 1015.6 |
| 20260831194718 | 81 | 209 | 6.0 | 11.0 | 0.00 | 0.13 | 0.13 | 78 | 1015.5 |
| 20260831194214 | 82 | 209 | 8.0 | 12.0 | 0.00 | 0.13 | 0.13 | 77 | 1015.3 |
| 20260831193707 | 82 | 191 | 5.0 | 13.0 | 0.00 | 0.13 | 0.13 | 77 | 1015.3 |
| 20260831193203 | 82 | 193 | 6.0 | 13.0 | 0.00 | 0.13 | 0.13 | 77 | 1015.3 |
| 20260831192658 | 82 | 182 | 6.0 | 13.0 | 0.00 | 0.13 | 0.13 | 75 | 1015.5 |
| 20260831192153 | 83 | 176 | 7.0 | 12.0 | 0.00 | 0.13 | 0.13 | 74 | 1015.5 |
| 20260831191649 | 83 | 165 | 9.0 | 22.0 | 0.00 | 0.13 | 0.13 | 74 | 1015.5 |
| 20260831191145 | 83 | 146 | 6.0 | 28.0 | 0.00 | 0.13 | 0.13 | 72 | 1015.3 |
| 20260831190640 | 84 | 167 | 10.0 | 12.0 | 0.00 | 0.13 | 0.13 | 71 | 1015.3 |
| 20260831190139 | 85 | 196 | 9.0 | 15.0 | 0.00 | 0.13 | 0.13 | 70 | 1015.1 |
| 20260831185634 | 84 | 176 | 10.0 | 24.0 | 0.00 | 0.13 | 0.13 | 69 | 1015.2 |
| 20260831185130 | 84 | 160 | 7.0 | 19.0 | 0.00 | 0.13 | 0.13 | 72 | 1015.2 |